| time (UTC) | temp F | wind direction | speed MPH | gust MPH | rain 1hr in | rain 24hr in | rain mn in | humidity % | barometer mb |
| 20260901134633 | 69 | 264 | 0.0 | 0.0 | 0.00 | 0.00 | 0.00 | 84 | 1100.1 |
| 20260901133125 | 69 | 264 | 0.0 | 0.0 | 0.00 | 0.00 | 0.00 | 84 | 1100.1 |
| 20260901131622 | 68 | 264 | 0.0 | 0.0 | 0.00 | 0.00 | 0.00 | 83 | 1100.1 |
| 20260901130121 | 68 | 264 | 0.0 | 0.0 | 0.00 | 0.00 | 0.00 | 83 | 1100.1 |
| 20260901124619 | 68 | 264 | 0.0 | 0.0 | 0.00 | 0.00 | 0.00 | 83 | 1100.1 |
| 20260901123115 | 68 | 264 | 0.0 | 0.0 | 0.00 | 0.00 | 0.00 | 83 | 1100.1 |
| 20260901121617 | 67 | 264 | 0.0 | 0.0 | 0.00 | 0.00 | 0.00 | 83 | 1100.1 |
| 20260901120122 | 67 | 264 | 0.0 | 0.0 | 0.00 | 0.00 | 0.00 | 84 | 1100.1 |
| 20260901114618 | 67 | 264 | 0.0 | 0.0 | 0.00 | 0.00 | 0.00 | 84 | 1100.1 |
| 20260901113112 | 66 | 264 | 0.0 | 0.0 | 0.00 | 0.00 | 0.00 | 85 | 1100.1 |
| 20260901111610 | 66 | 264 | 0.0 | 0.0 | 0.00 | 0.00 | 0.00 | 85 | 1100.1 |
| 20260901110134 | 65 | 264 | 0.0 | 0.0 | 0.00 | 0.00 | 0.00 | 85 | 1100.1 |
| 20260901104624 | 65 | 264 | 0.0 | 0.0 | 0.00 | 0.00 | 0.00 | 86 | 1100.1 |
| 20260901103123 | 65 | 264 | 0.0 | 0.0 | 0.00 | 0.00 | 0.00 | 85 | 1100.1 |
| 20260901101627 | 64 | 264 | 0.0 | 0.0 | 0.00 | 0.00 | 0.00 | 85 | 1100.1 |
| 20260901100132 | 64 | 264 | 0.0 | 0.0 | 0.00 | 0.00 | 0.00 | 86 | 1100.1 |
| 20260901094631 | 65 | 264 | 0.0 | 0.0 | 0.00 | 0.00 | 0.00 | 86 | 1100.1 |
| 20260901093138 | 64 | 264 | 0.0 | 0.0 | 0.00 | 0.00 | 0.00 | 86 | 1100.1 |
| 20260901091502 | 65 | 264 | 0.0 | 0.0 | 0.00 | 0.00 | 0.00 | 86 | 1100.1 |
| 20260901090145 | 64 | 264 | 0.0 | 0.0 | 0.00 | 0.00 | 0.00 | 86 | 1100.1 |
| 20260901084640 | 64 | 264 | 0.0 | 0.0 | 0.00 | 0.00 | 0.00 | 86 | 1100.1 |
| 20260901083124 | 64 | 264 | 0.0 | 0.0 | 0.00 | 0.00 | 0.00 | 86 | 1100.1 |
| 20260901081630 | 64 | 264 | 0.0 | 0.0 | 0.00 | 0.00 | 0.00 | 86 | 1100.1 |
| 20260901080136 | 64 | 264 | 0.0 | 0.0 | 0.00 | 0.00 | 0.00 | 86 | 1100.1 |
| 20260901074631 | 64 | 264 | 0.0 | 0.0 | 0.00 | 0.00 | 0.00 | 86 | 1100.1 |
| 20260901073113 | 64 | 264 | 0.0 | 0.0 | 0.00 | 0.00 | 0.00 | 87 | 1100.1 |
| 20260901071617 | 63 | 264 | 0.0 | 0.0 | 0.00 | 0.00 | 0.00 | 86 | 1100.1 |
| 20260901070125 | 64 | 264 | 0.0 | 0.0 | 0.00 | 0.00 | 0.00 | 86 | 1100.1 |
| 20260901064614 | 64 | 264 | 0.0 | 0.0 | 0.00 | 0.00 | 0.00 | 86 | 1100.1 |
| 20260901063118 | 63 | 264 | 0.0 | 0.0 | 0.00 | 0.00 | 0.00 | 86 | 1100.1 |
| 20260901061625 | 63 | 264 | 0.0 | 0.0 | 0.00 | 0.00 | 0.00 | 86 | 1100.1 |
| 20260901060131 | 63 | 264 | 0.0 | 0.0 | 0.00 | 0.00 | 0.00 | 85 | 1100.1 |
| 20260901054628 | 64 | 264 | 0.0 | 0.0 | 0.00 | 0.00 | 0.00 | 85 | 1100.1 |
| 20260901053121 | 64 | 264 | 0.0 | 0.0 | 0.00 | 0.00 | 0.00 | 85 | 1100.1 |
| 20260901051628 | 64 | 264 | 0.0 | 0.0 | 0.00 | 0.00 | 0.00 | 85 | 1100.1 |
| 20260901050113 | 65 | 264 | 0.0 | 0.0 | 0.00 | 0.00 | 0.00 | 84 | 1100.1 |
| 20260901044642 | 65 | 264 | 0.0 | 0.0 | 0.00 | 0.00 | 0.05 | 84 | 1100.1 |
| 20260901043134 | 65 | 264 | 0.0 | 0.0 | 0.00 | 0.00 | 0.05 | 84 | 1100.1 |
| 20260901041638 | 65 | 264 | 0.0 | 0.0 | 0.00 | 0.00 | 0.05 | 84 | 1100.1 |
| 20260901040011 | 65 | 264 | 0.0 | 0.0 | 0.00 | 0.00 | 0.05 | 85 | 1100.1 |
| 20260901034639 | 65 | 264 | 0.0 | 0.0 | 0.00 | 0.00 | 0.05 | 85 | 1100.1 |
| 20260901033130 | 65 | 264 | 0.0 | 0.0 | 0.00 | 0.00 | 0.05 | 85 | 1100.1 |
| 20260901031633 | 65 | 264 | 0.0 | 0.0 | 0.00 | 0.00 | 0.05 | 84 | 1100.1 |
| 20260901030140 | 66 | 264 | 0.0 | 0.0 | 0.00 | 0.00 | 0.05 | 84 | 1100.1 |
| 20260901024501 | 66 | 264 | 0.0 | 0.0 | 0.00 | 0.00 | 0.05 | 83 | 1100.1 |
| 20260901023152 | 66 | 264 | 0.0 | 0.0 | 0.00 | 0.00 | 0.05 | 82 | 1100.1 |
| 20260901021616 | 66 | 264 | 0.0 | 0.0 | 0.00 | 0.00 | 0.05 | 81 | 1100.1 |
| 20260901020108 | 66 | 264 | 0.0 | 0.0 | 0.00 | 0.00 | 0.05 | 81 | 1100.1 |
| 20260901013137 | 67 | 264 | 0.0 | 0.0 | 0.00 | 0.00 | 0.05 | 80 | 1100.1 |
| 20260901011521 | 67 | 264 | 1.0 | 0.0 | 0.00 | 0.00 | 0.05 | 80 | 1100.1 |
| 20260901010145 | 67 | 264 | 1.0 | 0.0 | 0.00 | 0.00 | 0.05 | 79 | 1100.1 |
| 20260901004622 | 67 | 264 | 1.0 | 0.0 | 0.00 | 0.00 | 0.05 | 79 | 1100.1 |
| 20260901003111 | 67 | 264 | 1.0 | 0.0 | 0.00 | 0.00 | 0.05 | 79 | 1100.1 |
| 20260901001615 | 67 | 264 | 0.0 | 0.0 | 0.00 | 0.00 | 0.05 | 79 | 1100.1 |
| 20260901000007 | 67 | 264 | 0.0 | 0.0 | 0.00 | 0.00 | 0.05 | 78 | 1100.1 |
| 20260831234509 | 67 | 264 | 0.0 | 0.0 | 0.00 | 0.00 | 0.05 | 78 | 1100.1 |
| 20260831233132 | 67 | 264 | 0.0 | 0.0 | 0.00 | 0.00 | 0.05 | 77 | 1100.1 |
| 20260831231512 | 68 | 264 | 1.0 | 0.0 | 0.00 | 0.00 | 0.05 | 76 | 1100.1 |
| 20260831230016 | 69 | 264 | 2.0 | 0.0 | 0.00 | 0.00 | 0.05 | 76 | 1100.1 |
| 20260831224649 | 69 | 264 | 1.0 | 0.0 | 0.00 | 0.00 | 0.05 | 75 | 1100.1 |
| 20260831223143 | 69 | 264 | 1.0 | 0.0 | 0.00 | 0.00 | 0.05 | 74 | 1100.1 |
| 20260831221644 | 70 | 264 | 0.0 | 0.0 | 0.00 | 0.00 | 0.05 | 72 | 1100.1 |
| 20260831220001 | 70 | 264 | 0.0 | 0.0 | 0.00 | 0.00 | 0.05 | 71 | 1100.1 |
| 20260831214632 | 71 | 264 | 1.0 | 0.0 | 0.00 | 0.00 | 0.05 | 70 | 1100.1 |
| 20260831213154 | 71 | 264 | 2.0 | 0.0 | 0.00 | 0.00 | 0.05 | 69 | 1100.1 |
| 20260831211513 | 71 | 264 | 1.0 | 0.0 | 0.00 | 0.00 | 0.05 | 69 | 1100.1 |
| 20260831210007 | 70 | 264 | 2.0 | 0.0 | 0.00 | 0.00 | 0.05 | 73 | 1100.1 |
| 20260831204506 | 70 | 264 | 2.0 | 0.0 | 0.00 | 0.00 | 0.05 | 71 | 1100.1 |
| 20260831203150 | 69 | 264 | 2.0 | 0.0 | 0.00 | 0.00 | 0.05 | 69 | 1100.1 |
| 20260831201624 | 69 | 264 | 4.0 | 0.0 | 0.00 | 0.00 | 0.05 | 69 | 1100.1 |
| 20260831200142 | 69 | 264 | 3.0 | 0.0 | 0.00 | 0.00 | 0.05 | 69 | 1100.1 |
| 20260831194504 | 69 | 264 | 2.0 | 0.0 | 0.00 | 0.00 | 0.05 | 69 | 1100.1 |
| 20260831193100 | 69 | 5 | 3.0 | 0.0 | 0.00 | 0.00 | 0.05 | 71 | 1100.1 |
| 20260831191614 | 70 | 29 | 2.0 | 0.0 | 0.00 | 0.00 | 0.05 | 68 | 1100.1 |
| 20260831190135 | 70 | 32 | 2.0 | 0.0 | 0.00 | 0.00 | 0.05 | 69 | 1100.1 |
| 20260831184627 | 70 | 16 | 3.0 | 0.0 | 0.00 | 0.00 | 0.05 | 69 | 1100.1 |
| 20260831183129 | 70 | 336 | 4.0 | 0.0 | 0.00 | 0.00 | 0.05 | 68 | 1100.1 |
| 20260831181504 | 70 | 31 | 1.0 | 0.0 | 0.00 | 0.00 | 0.05 | 67 | 1100.1 |
| 20260831180014 | 70 | 52 | 2.0 | 0.0 | 0.00 | 0.00 | 0.05 | 66 | 1100.1 |
| 20260831174508 | 70 | 82 | 2.0 | 0.0 | 0.00 | 0.00 | 0.05 | 65 | 1100.1 |
| 20260831173135 | 70 | 5 | 4.0 | 0.0 | 0.00 | 0.00 | 0.05 | 66 | 1100.1 |
| 20260831171626 | 70 | 123 | 2.0 | 0.0 | 0.00 | 0.00 | 0.05 | 66 | 1100.1 |
| 20260831170008 | 70 | 274 | 2.0 | 0.0 | 0.00 | 0.00 | 0.05 | 68 | 1100.1 |
| 20260831164633 | 70 | 265 | 2.0 | 0.0 | 0.00 | 0.00 | 0.05 | 69 | 1100.1 |
| 20260831163108 | 70 | 347 | 4.0 | 0.0 | 0.00 | 0.00 | 0.05 | 68 | 1100.1 |
| 20260831161632 | 70 | 337 | 2.0 | 0.0 | 0.00 | 0.00 | 0.05 | 69 | 1100.1 |
| 20260831160129 | 70 | 80 | 3.0 | 0.0 | 0.00 | 0.00 | 0.05 | 66 | 1100.1 |
| 20260831153001 | 70 | 17 | 5.0 | 0.0 | 0.00 | 0.00 | 0.05 | 65 | 1100.1 |
| 20260831140024 | 68 | 9 | 4.0 | 0.0 | 0.00 | 0.00 | 0.05 | 73 | 1100.1 |